TAP1930 LPPT-LPPR

Flight info

Callsign TAP1930
Flight time 0h 28m
Altitude 20000
Route IXIDA DCT ABLEG
Aircraft A21N/M-SDE3FGHIRWY/LB1

Departure

Time 2026-05-03 21:38
Airport Lisbon Humberto Delgado Airport (LPPT)

Arrival

Time 2026-05-03 22:06
Airport Francisco de Sá Carneiro Airport (LPPR)
Time Latitude Longitude Altitude Speed Heading
2026-05-03 21:06 38.77068 -9.13637 382 ft 0 kts 258°
2026-05-03 21:23 38.77069 -9.13634 382 ft 2 kts 259°
2026-05-03 21:23 38.77071 -9.13615 382 ft 2 kts 258°
2026-05-03 21:23 38.77074 -9.13596 382 ft 2 kts 258°
2026-05-03 21:24 38.77078 -9.13577 382 ft 2 kts 258°
2026-05-03 21:24 38.77081 -9.13558 382 ft 2 kts 258°
2026-05-03 21:24 38.77084 -9.13539 382 ft 2 kts 259°
2026-05-03 21:24 38.77087 -9.13521 382 ft 2 kts 255°
2026-05-03 21:25 38.77090 -9.13502 382 ft 2 kts 253°
2026-05-03 21:25 38.77095 -9.13484 382 ft 2 kts 251°
2026-05-03 21:25 38.77100 -9.13466 382 ft 2 kts 235°
2026-05-03 21:25 38.77112 -9.13454 382 ft 2 kts 195°
2026-05-03 21:26 38.77127 -9.13454 382 ft 2 kts 162°
2026-05-03 21:26 38.77142 -9.13459 382 ft 2 kts 171°
2026-05-03 21:26 38.77156 -9.13462 382 ft 2 kts 168°
2026-05-03 21:26 38.77171 -9.13466 382 ft 2 kts 168°
2026-05-03 21:27 38.77175 -9.13467 382 ft 0 kts 169°
2026-05-03 21:32 38.77173 -9.13467 382 ft 0 kts 169°
2026-05-03 21:32 38.77161 -9.13464 382 ft 2 kts 169°
2026-05-03 21:32 38.77136 -9.13458 382 ft 4 kts 169°
2026-05-03 21:32 38.77101 -9.13448 382 ft 5 kts 168°
2026-05-03 21:33 38.77055 -9.13436 382 ft 7 kts 168°
2026-05-03 21:33 38.76999 -9.13421 382 ft 8 kts 168°
2026-05-03 21:33 38.76934 -9.13403 382 ft 10 kts 168°
2026-05-03 21:33 38.76859 -9.13382 382 ft 11 kts 168°
2026-05-03 21:34 38.76777 -9.13364 382 ft 11 kts 184°
2026-05-03 21:34 38.76706 -9.13415 382 ft 12 kts 215°
2026-05-03 21:34 38.76654 -9.13497 382 ft 12 kts 257°
2026-05-03 21:34 38.76634 -9.13608 382 ft 12 kts 258°
2026-05-03 21:35 38.76617 -9.13721 382 ft 13 kts 258°
2026-05-03 21:35 38.76598 -9.13836 382 ft 13 kts 258°
2026-05-03 21:35 38.76579 -9.13953 382 ft 13 kts 257°
2026-05-03 21:35 38.76559 -9.14073 382 ft 13 kts 260°
2026-05-03 21:36 38.76578 -9.14191 382 ft 13 kts 292°
2026-05-03 21:36 38.76604 -9.14270 382 ft 7 kts 293°
2026-05-03 21:36 38.76625 -9.14334 382 ft 8 kts 293°
2026-05-03 21:36 38.76648 -9.14375 382 ft 4 kts 347°
2026-05-03 21:37 38.76694 -9.14362 382 ft 14 kts 20°
2026-05-03 21:37 38.77035 -9.14180 382 ft 89 kts 22°
2026-05-03 21:37 38.77821 -9.13757 383 ft 152 kts 22°
2026-05-03 21:37 38.78930 -9.13156 582 ft 185 kts 22°
2026-05-03 21:38 38.80035 -9.12403 1348 ft 181 kts 29°
2026-05-03 21:38 38.81085 -9.11567 2140 ft 180 kts 28°
2026-05-03 21:38 38.82178 -9.10747 2736 ft 189 kts 26°
2026-05-03 21:38 38.83378 -9.09900 3229 ft 203 kts 25°
2026-05-03 21:39 38.84652 -9.09018 3726 ft 218 kts 25°
2026-05-03 21:39 38.86072 -9.08071 4169 ft 238 kts 24°
2026-05-03 21:39 38.87592 -9.07077 4711 ft 253 kts 25°
2026-05-03 21:39 38.89149 -9.05982 5315 ft 265 kts 31°
2026-05-03 21:40 38.90668 -9.04544 5988 ft 275 kts 34°
2026-05-03 21:40 38.92348 -9.03452 6742 ft 275 kts
2026-05-03 21:40 38.94256 -9.03197 7394 ft 282 kts
2026-05-03 21:40 38.96201 -9.02713 8215 ft 285 kts 11°
2026-05-03 21:41 38.98110 -9.02109 9034 ft 287 kts 12°
2026-05-03 21:41 39.00074 -9.01458 9756 ft 291 kts 11°
2026-05-03 21:41 39.02038 -9.00805 10501 ft 296 kts 11°
2026-05-03 21:41 39.04086 -9.00128 10920 ft 312 kts 12°
2026-05-03 21:42 39.06246 -8.99417 11277 ft 329 kts 12°
2026-05-03 21:42 39.08510 -8.98669 11592 ft 347 kts 12°
2026-05-03 21:42 39.10890 -8.97883 11891 ft 363 kts 12°
2026-05-03 21:42 39.13421 -8.97043 12182 ft 380 kts 12°
2026-05-03 21:43 39.16030 -8.96179 12517 ft 393 kts 12°
2026-05-03 21:43 39.18689 -8.95294 13098 ft 398 kts 12°
2026-05-03 21:43 39.21376 -8.94398 13725 ft 402 kts 12°
2026-05-03 21:43 39.24106 -8.93529 14303 ft 406 kts
2026-05-03 21:44 39.26890 -8.92957 14881 ft 409 kts
2026-05-03 21:44 39.29712 -8.92491 15424 ft 413 kts
2026-05-03 21:44 39.32565 -8.92028 15972 ft 418 kts
2026-05-03 21:44 39.35470 -8.91539 16517 ft 422 kts
2026-05-03 21:45 39.38389 -8.91034 17060 ft 426 kts
2026-05-03 21:45 39.41337 -8.90513 17582 ft 430 kts
2026-05-03 21:45 39.44305 -8.89980 18075 ft 434 kts
2026-05-03 21:45 39.47296 -8.89438 18603 ft 437 kts
2026-05-03 21:46 39.50321 -8.88886 19132 ft 439 kts
2026-05-03 21:46 39.53368 -8.88330 19605 ft 443 kts
2026-05-03 21:46 39.56422 -8.87770 19969 ft 446 kts
2026-05-03 21:46 39.59494 -8.87207 20026 ft 447 kts
2026-05-03 21:47 39.62587 -8.86641 20037 ft 446 kts
2026-05-03 21:47 39.65631 -8.86081 20033 ft 446 kts
2026-05-03 21:47 39.68687 -8.85520 20033 ft 446 kts
2026-05-03 21:47 39.71782 -8.84951 20023 ft 446 kts
2026-05-03 21:48 39.74833 -8.84388 20033 ft 447 kts
2026-05-03 21:48 39.77928 -8.83817 20035 ft 446 kts
2026-05-03 21:48 39.81010 -8.83250 20038 ft 447 kts
2026-05-03 21:48 39.84061 -8.82687 20042 ft 447 kts
2026-05-03 21:49 39.87134 -8.82119 20038 ft 447 kts
2026-05-03 21:49 39.90210 -8.81549 20040 ft 447 kts
2026-05-03 21:49 39.93298 -8.80977 20041 ft 447 kts
2026-05-03 21:49 39.96394 -8.80404 19748 ft 448 kts
2026-05-03 21:50 39.99428 -8.79842 19275 ft 443 kts
2026-05-03 21:50 40.02483 -8.79275 18765 ft 440 kts
2026-05-03 21:50 40.05496 -8.78715 18270 ft 435 kts
2026-05-03 21:50 40.08455 -8.78164 17784 ft 431 kts
2026-05-03 21:51 40.11432 -8.77609 17276 ft 427 kts
2026-05-03 21:51 40.14352 -8.77065 16792 ft 422 kts
2026-05-03 21:51 40.17218 -8.76530 16306 ft 418 kts
2026-05-03 21:51 40.20088 -8.75994 15813 ft 414 kts
2026-05-03 21:52 40.22936 -8.75462 15323 ft 411 kts
2026-05-03 21:52 40.25735 -8.74937 14844 ft 407 kts
2026-05-03 21:52 40.28505 -8.74419 14364 ft 403 kts
2026-05-03 21:52 40.31287 -8.73899 13877 ft 399 kts
2026-05-03 21:53 40.34019 -8.73386 13381 ft 396 kts
2026-05-03 21:53 40.36739 -8.72874 12881 ft 393 kts
2026-05-03 21:53 40.39422 -8.72371 12382 ft 389 kts
2026-05-03 21:53 40.42084 -8.71872 11899 ft 386 kts
2026-05-03 21:54 40.44712 -8.71378 11413 ft 382 kts
2026-05-03 21:54 40.47322 -8.70885 11107 ft 372 kts
2026-05-03 21:54 40.49815 -8.70414 11028 ft 356 kts
2026-05-03 21:54 40.52203 -8.69961 11024 ft 338 kts
2026-05-03 21:55 40.54500 -8.69526 11021 ft 321 kts
2026-05-03 21:55 40.56654 -8.69117 11022 ft 305 kts
2026-05-03 21:55 40.58688 -8.68732 10973 ft 292 kts
2026-05-03 21:55 40.60700 -8.68352 10585 ft 291 kts
2026-05-03 21:56 40.62687 -8.67980 10205 ft 290 kts
2026-05-03 21:56 40.64675 -8.67606 9832 ft 289 kts
2026-05-03 21:56 40.66686 -8.67225 9437 ft 288 kts
2026-05-03 21:56 40.68666 -8.66851 9085 ft 286 kts
2026-05-03 21:57 40.70619 -8.66481 8752 ft 283 kts
2026-05-03 21:57 40.72552 -8.66114 8419 ft 280 kts
2026-05-03 21:57 40.74474 -8.65749 8090 ft 278 kts
2026-05-03 21:57 40.76373 -8.65388 7761 ft 275 kts
2026-05-03 21:58 40.78265 -8.65029 7437 ft 272 kts
2026-05-03 21:58 40.80122 -8.64675 7114 ft 269 kts
2026-05-03 21:58 40.81970 -8.64325 6794 ft 266 kts
2026-05-03 21:58 40.83779 -8.63980 6475 ft 264 kts
2026-05-03 21:59 40.85595 -8.63635 6168 ft 261 kts
2026-05-03 21:59 40.87370 -8.63297 5850 ft 259 kts
2026-05-03 21:59 40.89154 -8.62956 5527 ft 257 kts
2026-05-03 21:59 40.90914 -8.62619 5208 ft 254 kts
2026-05-03 22:00 40.92665 -8.62284 4899 ft 252 kts
2026-05-03 22:00 40.94384 -8.61956 4594 ft 251 kts
2026-05-03 22:00 40.96108 -8.61615 4296 ft 248 kts
2026-05-03 22:00 40.97816 -8.61385 4028 ft 251 kts 359°
2026-05-03 22:01 40.99543 -8.61552 3977 ft 240 kts 351°
2026-05-03 22:01 41.01154 -8.61914 3975 ft 235 kts 348°
2026-05-03 22:01 41.02748 -8.62333 3979 ft 235 kts 347°
2026-05-03 22:01 41.04353 -8.62765 3915 ft 234 kts 347°
2026-05-03 22:02 41.05944 -8.63189 3666 ft 231 kts 348°
2026-05-03 22:02 41.07513 -8.63602 3358 ft 229 kts 348°
2026-05-03 22:02 41.09059 -8.64007 3049 ft 223 kts 348°
2026-05-03 22:02 41.10547 -8.64396 2756 ft 216 kts 348°
2026-05-03 22:03 41.11992 -8.64774 2518 ft 205 kts 348°
2026-05-03 22:03 41.13348 -8.65128 2294 ft 191 kts 348°
2026-05-03 22:03 41.14598 -8.65454 2045 ft 178 kts 348°
2026-05-03 22:03 41.15786 -8.65765 1773 ft 167 kts 348°
2026-05-03 22:04 41.16883 -8.66052 1523 ft 153 kts 348°
2026-05-03 22:04 41.17879 -8.66313 1304 ft 142 kts 348°
2026-05-03 22:04 41.18852 -8.66567 1139 ft 141 kts 348°
2026-05-03 22:04 41.19814 -8.66815 962 ft 141 kts 348°
2026-05-03 22:05 41.20776 -8.67065 779 ft 141 kts 348°
2026-05-03 22:05 41.21728 -8.67315 580 ft 140 kts 348°
2026-05-03 22:05 41.22686 -8.67567 401 ft 140 kts 348°
2026-05-03 22:05 41.23648 -8.67824 241 ft 139 kts 348°
2026-05-03 22:06 41.24471 -8.68038 236 ft 97 kts 349°
2026-05-03 22:06 41.24910 -8.68152 236 ft 36 kts 349°
2026-05-03 22:06 41.25138 -8.68159 236 ft 28 kts 11°
2026-05-03 22:06 41.25236 -8.68122 236 ft 11 kts 18°
2026-05-03 22:07 41.25292 -8.68056 236 ft 11 kts 92°
2026-05-03 22:07 41.25262 -8.68014 236 ft 2 kts 163°
2026-05-03 22:07 41.25244 -8.68008 236 ft 3 kts 167°
2026-05-03 22:07 41.25215 -8.68001 236 ft 5 kts 169°
2026-05-03 22:08 41.25165 -8.67989 236 ft 9 kts 169°
2026-05-03 22:08 41.25088 -8.67968 236 ft 13 kts 168°
2026-05-03 22:08 41.24980 -8.67940 236 ft 17 kts 168°
2026-05-03 22:08 41.24865 -8.67899 236 ft 17 kts 155°
2026-05-03 22:09 41.24757 -8.67829 236 ft 16 kts 164°
2026-05-03 22:09 41.24643 -8.67797 236 ft 17 kts 168°
2026-05-03 22:09 41.24517 -8.67764 236 ft 19 kts 168°
2026-05-03 22:10 41.24284 -8.67674 236 ft 14 kts 132°
2026-05-03 22:10 41.24212 -8.67583 236 ft 14 kts 159°
2026-05-03 22:10 41.24101 -8.67550 236 ft 17 kts 168°
2026-05-03 22:10 41.23972 -8.67516 236 ft 20 kts 168°
2026-05-03 22:11 41.23828 -8.67478 236 ft 22 kts 169°
2026-05-03 22:11 41.23735 -8.67410 236 ft 13 kts 130°
2026-05-03 22:11 41.23664 -8.67343 236 ft 6 kts 166°
2026-05-03 22:11 41.23635 -8.67336 236 ft 2 kts 163°
2026-05-03 22:12 41.23630 -8.67321 236 ft 2 kts 95°
2026-05-03 22:12 41.23633 -8.67291 236 ft 3 kts 79°
2026-05-03 22:12 41.23638 -8.67253 236 ft 4 kts 79°
2026-05-03 22:12 41.23639 -8.67248 236 ft 0 kts 79°